Volver al catálogo

DELTA 1 DEB

ActivoPO
NORAD 21268·DEBRIS·🇺🇸 United States

Lanzado Jun 12, 1975 desde Vandenberg Space Force Base

Loading…

Próximos Pases (próximas 24 horas)

TLE

ActualizadoSource: Space-Track

Época: Sep 14, 2026, 08:38 UTC

1 21268U 75052D   26257.36033244 -.00000193  00000-0 -42597-3 0  9990
2 21268  99.8206 287.7228 0200034  95.4938 277.9500 13.06739075685435

Sigue DELTA 1 DEB en tiempo real con AllMySat

Download on the App Store